Location: Bartlow
(52.0833°N, 0.3167°E)
Time: 11:41:24
(UTC+00:00)

Cosmos 2266 Rocket - Pass Details

Date: 18 April 2024
Orbit: 934 x 1006 km, 82.9° (Epoch: 25 May)

Event Time Altitude Azimuth Distance (km) Brightness Sun altitude
Rises 03:17:25 0° 168° (SSE) 3,603 6.7 -13.8°
Reaches altitude 10° 03:19:59 10° 163° (SSE) 2,655 6.1 -13.5°
Maximum altitude 03:25:45 48° 91° (E) 1,204 4.9 -12.8°
Drops below altitude 10° 03:31:31 10° 19° (NNE) 2,658 7.2 -12.1°
Sets 03:34:04 0° 14° (NNE) 3,607 7.8 -11.8°
